Regional Weather Roundup
Issued by NWS

Home | Current Version | Previous Version | Text Only | Print | Product List | Glossary Off
Versions: 1 2 3 4 5 6 7 8 9 10 11 12 13 14 15 16 17 18 19 20 21 22 23 24 25 26 27 28 29 30 31 32 33 34 35 36 37 38 39 40 41 42 43 44 45 46 47 48 49 50

000
ASUS43 KLSX 231607
RWRMO

WEATHER SUMMARY FOR MISSOURI
NATIONAL WEATHER SERVICE SPRINGFIELD MO
1000 AM CST THU NOV 23 2017

NOTE: "FAIR" INDICATES FEW OR NO CLOUDS BELOW 12,000 FEET WITH NO
       SIGNIFICANT WEATHER AND/OR OBSTRUCTIONS TO VISIBILITY.
       CURRENT SKY AND/OR WEATHER CONDITIONS ARE NOT AVAILABLE FOR
       CHILLICOTHE AND FARMINGTON.

MOZ001>031-035>038-043-044-053-054-231700-
...NORTHERN AND WESTERN MISSOURI...

CITY           SKY/WX    TMP DP  RH WIND       PRES   REMARKS
KANSAS CTY INT MOSUNNY   44  27  51 W8        30.05S
KANSAS C DTWN  SUNNY     45  25  45 SW9       30.05F
LEE`S SUMMIT   SUNNY     45  26  47 W10       30.04F
ST JOSEPH      SUNNY     44  28  53 S3        30.04F
CHILLICOTHE      N/A     44  27  51 W6        30.04R
KIRKSVILLE     SUNNY     42  26  53 W10       30.00F

$$
MOZ066>068-077>081-088>096-101>105-231700-
...SOUTHWEST MISSOURI...

CITY           SKY/WX    TMP DP  RH WIND       PRES   REMARKS
SPRINGFIELD    SUNNY     49  25  39 W12       30.10S
JOPLIN         SUNNY     49  25  39 SW14      30.12S
BRANSON        MOSUNNY   48  19  32 CALM      30.13F

$$
MOZ032>034-039>042-045>050-055>058-069>072-231700-
...CENTRAL MISSOURI...

CITY           SKY/WX    TMP DP  RH WIND       PRES   REMARKS
COLUMBIA       CLOUDY    45  25  45 W13       30.05S
JEFFERSON CITY CLOUDY    44  24  45 SW7       30.06F
ROLLA          SUNNY     44  21  40 SW12      30.07F
SEDALIA        SUNNY     45  27  49 SW14      30.06S
WHITEMAN AFB   SUNNY     46  24  43 SW12      30.00F
WARRENSBURG    SUNNY     43  27  52 SW12      30.05F
OSAGE BEACH    SUNNY     47  22  37 SW10      30.07F

$$
MOZ051-052-059>065-231700-
...EAST CENTRAL MISSOURI...

CITY           SKY/WX    TMP DP  RH WIND       PRES   REMARKS
ST LOUIS INTL  MOSUNNY   44  22  41 SW8       30.08F
SPIRIT OF STL  MOSUNNY   47  21  35 SW9       30.07F
ST CHARLES     SUNNY     44  21  40 SW9       30.07F

$$
MOZ072>076-082>087-097>100-106>115-231700-
...SOUTH CENTRAL AND SOUTHEAST MISSOURI...

CITY           SKY/WX    TMP DP  RH WIND       PRES   REMARKS
CAPE GIRARDEAU SUNNY     40  28  62 SW3       30.16F
FARMINGTON     SUNNY     42  24  49 S8        30.11F
POPLAR BLUFF   SUNNY     40  27  59 SW6       30.17F
WEST PLAINS    SUNNY     46  21  37 W9        30.13S

$$



USA.gov is the U.S. government's official web portal to all federal, state and local government web resources and services.